Location: Great Snoring
(52.8667°N, 0.8833°E)
Time: 00:15:12
(UTC+00:00)

COSMOS 2406 - Pass Details

Date: 19 May 2025
Orbit: 845 x 859 km, 71.0° (Epoch: 18 June)

Event Time Altitude Azimuth Distance (km) Brightness Sun altitude
Exits shadow 23:41:06 13° 227° (SW) 2,245 5.0 -17.1°
Maximum altitude 23:46:06 62° 306° (NW) 959 3.6 -17.1°
Drops below altitude 10° 23:51:47 10° 28° (NNE) 2,494 6.6 -17.1°
Sets 23:54:18 0° 32° (NNE) 3,436 7.4 -17.1°
